DELTA 1 DEB, 10642

Orbit data source: Space-Track

DELTA 1 DEB, 10642 is space debris in SSO originally from a launch on Thu, 29 Jul 1976 UTC launched from the Air Force Western Test Range (AFWTR). Debris objects in space refer to the collection of defunct objects orbiting the Earth. Examples of debris include non-operational satellites, rocket bodies, and fragments generated from explosions, collisions, or faulty payload assembly.

Loading next visibility...
Identifier
10642, 1976-077C
Orbit
SSO
Country
Flag of USUS
Related business
Manufacturer
Unknown
Mission
Spacecraft
Bus & Motor
Unknown
Mass
Unknown
Launch date (UTC)
1976-07-29 (50 years ago)
Launch vehicle
Unknown
Launch site
Air Force Western Test Range (AFWTR)
Object type
Payload
Rocket body
Debris
Shape & HBR
Unknown shape, 0.1 m
Radar Cross Section
Medium (>0.1 m² and <1 m²)

Expand to show TLE details & history
Last TLE update: 2 days ago

TLE from 2 days ago
0 DELTA 1 DEB
1 10642U 76077C   26254.83864110 -.00000013  00000-0  28713-3 0  9999
2 10642 102.2550 203.4093 0102039 236.9943 183.6284 12.21840167235613
Epoch: 2026-09-11T20:07Z
TLE epoch observation values (Epoch: 2026-09-11T20:07:38.591Z)
Latitude
58.4046°
Longitude
-109.93362°
Altitude
1,675.278 km
Speed
7.006 km/s
True Right ascension
12h 11m 20s
True Declination
58° 16' 06"
Sunlit
Object was in daylight at epoch
Visualization orbit readout
Latitude
Unknown
Longitude
Unknown
Altitude
Unknown
Speed
Unknown
Apparent Right ascension
Unknown
Apparent Declination
Unknown
Sunlit
N/A
Visualization observer readout
Local Sidereal Time
01:49:32
Azimuth
Unknown
Elevation
Unknown
Doppler factor
Unknown
Orbital elements
Apogee altitude
1,663.376 km
Perigee altitude
1,500.924 km
Semi-major axis
7,960.287 km
Eccentricity
0.0102
Inclination
102.255°
RAAN
203.4093°
Arg. of periapsis
236.9943°
True anomaly
183.55533°
Mean anomaly
183.6284°
Eccentric anomaly
183.59177°
Mean motion
3.05598 °/min
Orbital period
117.8 mins
BSTAR
0.00028713
Loading maneuver chart data...
Computing Atmospheric mass density...
Loading historical data...
Loading historical data...
Loading historical data...
Loading historical data...
Loading historical data...
Loading historical data...
Loading historical data...

Documentation

Showing up to 5 results
|